Location: ??? ???
(33.4974°N, 35.4618°E)
Time: 01:33:48
(UTC+00:00)

Cosmos 1340 - Pass Details

Date: 29 October 2020
Orbit: 501 x 504 km, 81.2° (Epoch: 25 November)

Event Time Altitude Azimuth Distance (km) Brightness Sun altitude
Rises 15:49:37 0° 350° (N) 2,608 6.3 -13.2°
Reaches altitude 10° 15:51:45 10° 350° (N) 1,720 5.4 -13.7°
Maximum altitude 15:55:32 81° 263° (W) 515 2.7 -14.5°
Drops below altitude 10° 15:59:16 10° 176° (S) 1,708 5.4 -15.2°
Sets 16:01:23 0° 175° (S) 2,588 6.3 -15.7°
